Time,TemperatureF,DewpointF,PressureIn,WindDirection,WindDirectionDegrees,WindSpeedMPH,WindSpeedGustMPH,Humidity,HourlyPrecipIn,Conditions,Clouds,dailyrainin,SoftwareType,DateUTC
2013-11-24 00:00:00,42.7,24.3,30.18,NNW,338,0.4,0.4,48,0.00,,,0.00,WUHU216HW,2013-11-24 05:00:00,
2013-11-24 00:01:00,42.7,24.3,30.18,NNW,338,0.4,0.4,48,0.00,,,0.00,WUHU216HW,2013-11-24 05:01:00,
2013-11-24 00:02:00,42.7,24.3,30.18,NNW,338,0.4,0.4,48,0.00,,,0.00,WUHU216HW,2013-11-24 05:02:00,
2013-11-24 00:07:00,42.7,24.3,30.18,NNW,338,0.4,0.4,48,0.00,,,0.00,WUHU216HW,2013-11-24 05:07:00,
2013-11-24 00:30:00,41.9,23.6,30.18,NW,315,1.3,1.3,48,0.00,,,0.00,WUHU216HW,2013-11-24 05:30:00,
2013-11-24 00:35:00,41.9,23.6,30.18,NW,315,1.3,1.3,48,0.00,,,0.00,WUHU216HW,2013-11-24 05:35:00,
2013-11-24 01:00:00,41.0,22.7,30.19,NW,315,0.2,0.2,48,0.00,,,0.00,WUHU216HW,2013-11-24 06:00:00,
2013-11-24 01:05:00,41.0,22.7,30.19,NW,315,0.2,0.2,48,0.00,,,0.00,WUHU216HW,2013-11-24 06:05:00,
2013-11-24 01:30:00,39.6,20.9,30.21,North,0,2.7,2.7,47,0.00,,,0.00,WUHU216HW,2013-11-24 06:30:00,
2013-11-24 01:35:00,39.6,20.9,30.21,North,0,2.7,2.7,47,0.00,,,0.00,WUHU216HW,2013-11-24 06:35:00,
2013-11-24 02:00:00,38.3,19.8,30.21,NNW,338,2.0,2.0,47,0.00,,,0.00,WUHU216HW,2013-11-24 07:00:00,
2013-11-24 02:05:00,38.3,19.8,30.21,NNW,338,2.0,2.0,47,0.00,,,0.00,WUHU216HW,2013-11-24 07:05:00,
2013-11-24 02:30:00,37.3,19.4,30.22,NNW,338,1.1,1.1,48,0.00,,,0.00,WUHU216HW,2013-11-24 07:30:00,
2013-11-24 02:35:00,37.3,19.4,30.22,NNW,338,1.1,1.1,48,0.00,,,0.00,WUHU216HW,2013-11-24 07:35:00,
2013-11-24 03:00:00,36.0,17.6,30.23,West,270,0.7,0.7,47,0.00,,,0.00,WUHU216HW,2013-11-24 08:00:00,
2013-11-24 03:05:00,36.0,17.6,30.23,West,270,0.7,0.7,47,0.00,,,0.00,WUHU216HW,2013-11-24 08:05:00,
2013-11-24 03:30:00,35.1,17.4,30.24,NNW,338,1.8,1.8,48,0.00,,,0.00,WUHU216HW,2013-11-24 08:30:00,
2013-11-24 03:35:00,35.1,17.4,30.24,NNW,338,1.8,1.8,48,0.00,,,0.00,WUHU216HW,2013-11-24 08:35:00,
2013-11-24 04:00:00,34.2,16.9,30.26,NNW,338,0.7,0.7,49,0.00,,,0.00,WUHU216HW,2013-11-24 09:00:00,
2013-11-24 04:05:00,34.2,16.9,30.26,NNW,338,0.7,0.7,49,0.00,,,0.00,WUHU216HW,2013-11-24 09:05:00,
2013-11-24 04:30:00,33.5,15.3,30.26,North,0,0.7,0.7,47,0.00,,,0.00,WUHU216HW,2013-11-24 09:30:00,
2013-11-24 04:35:00,33.5,15.3,30.26,North,0,0.7,0.7,47,0.00,,,0.00,WUHU216HW,2013-11-24 09:35:00,
2013-11-24 05:00:00,32.2,13.2,30.29,NNW,338,1.1,1.1,45,0.00,,,0.00,WUHU216HW,2013-11-24 10:00:00,
2013-11-24 05:05:00,32.2,13.2,30.29,NNW,338,1.1,1.1,45,0.00,,,0.00,WUHU216HW,2013-11-24 10:05:00,
2013-11-24 05:30:00,31.3,12.8,30.29,North,0,2.5,2.5,46,0.00,,,0.00,WUHU216HW,2013-11-24 10:30:00,
2013-11-24 05:35:00,31.3,12.8,30.29,North,0,2.5,2.5,46,0.00,,,0.00,WUHU216HW,2013-11-24 10:35:00,
2013-11-24 06:00:00,30.6,12.2,30.32,NNW,338,2.2,2.2,46,0.00,,,0.00,WUHU216HW,2013-11-24 11:00:00,
2013-11-24 06:05:00,30.6,12.2,30.32,NNW,338,2.2,2.2,46,0.00,,,0.00,WUHU216HW,2013-11-24 11:05:00,
2013-11-24 06:30:00,30.2,12.9,30.34,NNW,338,0.4,0.4,48,0.00,,,0.00,WUHU216HW,2013-11-24 11:30:00,
2013-11-24 06:35:00,30.2,12.9,30.34,NNW,338,0.4,0.4,48,0.00,,,0.00,WUHU216HW,2013-11-24 11:35:00,
2013-11-24 07:00:00,29.7,11.3,30.36,North,0,0.7,0.7,46,0.00,,,0.00,WUHU216HW,2013-11-24 12:00:00,
2013-11-24 07:05:00,29.7,11.3,30.36,North,0,0.7,0.7,46,0.00,,,0.00,WUHU216HW,2013-11-24 12:05:00,
2013-11-24 07:30:00,29.2,10.4,30.37,NNW,338,2.0,2.0,45,0.00,,,0.00,WUHU216HW,2013-11-24 12:30:00,
2013-11-24 07:35:00,29.2,10.4,30.37,NNW,338,2.0,2.0,45,0.00,,,0.00,WUHU216HW,2013-11-24 12:35:00,
2013-11-24 08:00:00,29.5,10.7,30.40,North,0,2.0,2.0,45,0.00,,,0.00,WUHU216HW,2013-11-24 13:00:00,
2013-11-24 08:05:00,29.5,10.7,30.40,North,0,2.0,2.0,45,0.00,,,0.00,WUHU216HW,2013-11-24 13:05:00,
2013-11-24 08:30:00,29.9,10.5,30.41,North,0,1.1,1.1,44,0.00,,,0.00,WUHU216HW,2013-11-24 13:30:00,
2013-11-24 08:35:00,29.9,10.5,30.41,North,0,1.1,1.1,44,0.00,,,0.00,WUHU216HW,2013-11-24 13:35:00,
2013-11-24 09:00:00,30.6,10.2,30.43,NNW,338,2.5,2.5,42,0.00,,,0.00,WUHU216HW,2013-11-24 14:00:00,
2013-11-24 09:05:00,30.6,10.2,30.43,NNW,338,2.5,2.5,42,0.00,,,0.00,WUHU216HW,2013-11-24 14:05:00,
2013-11-24 09:30:00,31.3,9.2,30.43,NW,315,1.6,1.6,39,0.00,,,0.00,WUHU216HW,2013-11-24 14:30:00,
2013-11-24 09:35:00,31.3,9.2,30.43,NW,315,1.6,1.6,39,0.00,,,0.00,WUHU216HW,2013-11-24 14:35:00,
2013-11-24 10:00:00,32.0,9.2,30.45,North,0,0.4,0.4,38,0.00,,,0.00,WUHU216HW,2013-11-24 15:00:00,
2013-11-24 10:05:00,32.0,9.2,30.45,North,0,0.4,0.4,38,0.00,,,0.00,WUHU216HW,2013-11-24 15:05:00,
2013-11-24 10:30:00,32.9,10.0,30.46,NNE,23,0.9,0.9,38,0.00,,,0.00,WUHU216HW,2013-11-24 15:30:00,
2013-11-24 10:35:00,32.9,10.0,30.46,NNE,23,0.9,0.9,38,0.00,,,0.00,WUHU216HW,2013-11-24 15:35:00,
2013-11-24 11:00:00,33.8,9.5,30.46,WNW,293,4.0,4.0,36,0.00,,,0.00,WUHU216HW,2013-11-24 16:00:00,
2013-11-24 11:05:00,33.8,9.5,30.46,WNW,293,4.0,4.0,36,0.00,,,0.00,WUHU216HW,2013-11-24 16:05:00,
2013-11-24 11:30:00,34.9,10.4,30.45,NNW,338,0.9,0.9,36,0.00,,,0.00,WUHU216HW,2013-11-24 16:30:00,
2013-11-24 11:35:00,34.9,10.4,30.45,NNW,338,0.9,0.9,36,0.00,,,0.00,WUHU216HW,2013-11-24 16:35:00,
2013-11-24 12:00:00,34.9,8.6,30.43,NE,45,1.1,1.1,33,0.00,,,0.00,WUHU216HW,2013-11-24 17:00:00,
2013-11-24 12:05:00,34.9,8.6,30.43,NE,45,1.1,1.1,33,0.00,,,0.00,WUHU216HW,2013-11-24 17:05:00,
2013-11-24 12:30:00,35.6,9.2,30.42,NNW,338,4.0,4.0,33,0.00,,,0.00,WUHU216HW,2013-11-24 17:30:00,
2013-11-24 12:35:00,35.6,9.2,30.42,NNW,338,4.0,4.0,33,0.00,,,0.00,WUHU216HW,2013-11-24 17:35:00,
2013-11-24 13:00:00,35.5,7.8,30.42,NNW,338,3.1,3.1,31,0.00,,,0.00,WUHU216HW,2013-11-24 18:00:00,
2013-11-24 13:05:00,35.5,7.8,30.42,NNW,338,3.1,3.1,31,0.00,,,0.00,WUHU216HW,2013-11-24 18:05:00,
2013-11-24 13:30:00,36.0,8.8,30.41,NNW,338,3.4,3.4,32,0.00,,,0.00,WUHU216HW,2013-11-24 18:30:00,
2013-11-24 13:35:00,36.0,8.8,30.41,NNW,338,3.4,3.4,32,0.00,,,0.00,WUHU216HW,2013-11-24 18:35:00,
2013-11-24 14:00:00,36.4,8.5,30.41,NW,315,1.6,1.6,31,0.00,,,0.00,WUHU216HW,2013-11-24 19:00:00,
2013-11-24 14:05:00,36.4,8.5,30.41,NW,315,1.6,1.6,31,0.00,,,0.00,WUHU216HW,2013-11-24 19:05:00,
2013-11-24 14:30:00,36.4,7.8,30.41,NNE,23,1.1,1.1,30,0.00,,,0.00,WUHU216HW,2013-11-24 19:30:00,
2013-11-24 14:35:00,36.4,7.8,30.41,NNE,23,1.1,1.1,30,0.00,,,0.00,WUHU216HW,2013-11-24 19:35:00,
2013-11-24 15:00:00,35.8,7.4,30.42,NNW,338,1.3,1.3,30,0.00,,,0.00,WUHU216HW,2013-11-24 20:00:00,
2013-11-24 15:05:00,35.8,7.4,30.42,NNW,338,1.3,1.3,30,0.00,,,0.00,WUHU216HW,2013-11-24 20:05:00,
2013-11-24 15:30:00,35.6,7.8,30.42,NNE,23,0.7,0.7,31,0.00,,,0.00,WUHU216HW,2013-11-24 20:30:00,
2013-11-24 15:35:00,35.6,7.8,30.42,NNE,23,0.7,0.7,31,0.00,,,0.00,WUHU216HW,2013-11-24 20:35:00,
2013-11-24 16:00:00,34.9,7.3,30.43,North,0,1.3,1.3,31,0.00,,,0.00,WUHU216HW,2013-11-24 21:00:00,
2013-11-24 16:05:00,34.9,7.3,30.43,North,0,1.3,1.3,31,0.00,,,0.00,WUHU216HW,2013-11-24 21:05:00,
2013-11-24 16:30:00,34.2,7.3,30.44,ESE,113,0.2,0.2,32,0.00,,,0.00,WUHU216HW,2013-11-24 21:30:00,
2013-11-24 16:35:00,34.2,7.3,30.44,ESE,113,0.2,0.2,32,0.00,,,0.00,WUHU216HW,2013-11-24 21:35:00,
2013-11-24 17:00:00,33.3,8.5,30.43,NNW,338,0.2,0.2,35,0.00,,,0.00,WUHU216HW,2013-11-24 22:00:00,
2013-11-24 17:05:00,33.3,8.5,30.43,NNW,338,0.2,0.2,35,0.00,,,0.00,WUHU216HW,2013-11-24 22:05:00,
2013-11-24 17:30:00,32.6,9.0,30.44,North,0,0.0,0.0,37,0.00,,,0.00,WUHU216HW,2013-11-24 22:30:00,
2013-11-24 17:35:00,32.6,9.0,30.44,North,0,0.0,0.0,37,0.00,,,0.00,WUHU216HW,2013-11-24 22:35:00,
2013-11-24 18:00:00,32.2,10.6,30.46,NNW,338,0.0,0.0,40,0.00,,,0.00,WUHU216HW,2013-11-24 23:00:00,
2013-11-24 18:05:00,32.2,10.6,30.46,NNW,338,0.0,0.0,40,0.00,,,0.00,WUHU216HW,2013-11-24 23:05:00,
2013-11-24 18:30:00,31.3,9.2,30.46,WNW,293,0.0,0.0,39,0.00,,,0.00,WUHU216HW,2013-11-24 23:30:00,
2013-11-24 18:35:00,31.3,9.2,30.46,WNW,293,0.0,0.0,39,0.00,,,0.00,WUHU216HW,2013-11-24 23:35:00,
2013-11-24 19:00:00,30.2,9.4,30.48,West,270,0.0,0.0,41,0.00,,,0.00,WUHU216HW,2013-11-25 00:00:00,
2013-11-24 19:05:00,30.2,9.4,30.48,West,270,0.0,0.0,41,0.00,,,0.00,WUHU216HW,2013-11-25 00:05:00,
2013-11-24 19:30:00,29.2,9.4,30.49,SSW,203,0.0,0.0,43,0.00,,,0.00,WUHU216HW,2013-11-25 00:30:00,
2013-11-24 19:35:00,29.2,9.4,30.49,SSW,203,0.0,0.0,43,0.00,,,0.00,WUHU216HW,2013-11-25 00:35:00,
2013-11-24 20:00:00,28.4,9.7,30.50,ESE,113,0.0,0.0,45,0.00,,,0.00,WUHU216HW,2013-11-25 01:00:00,
2013-11-24 20:05:00,28.4,9.7,30.50,ESE,113,0.0,0.0,45,0.00,,,0.00,WUHU216HW,2013-11-25 01:05:00,
2013-11-24 20:30:00,28.1,9.9,30.50,WNW,293,0.7,0.7,46,0.00,,,0.00,WUHU216HW,2013-11-25 01:30:00,
2013-11-24 20:35:00,28.1,9.9,30.50,WNW,293,0.7,0.7,46,0.00,,,0.00,WUHU216HW,2013-11-25 01:35:00,
2013-11-24 21:00:00,27.7,10.5,30.50,WNW,293,0.0,0.0,48,0.00,,,0.00,WUHU216HW,2013-11-25 02:00:00,
2013-11-24 21:05:00,27.7,10.5,30.50,WNW,293,0.0,0.0,48,0.00,,,0.00,WUHU216HW,2013-11-25 02:05:00,
2013-11-24 21:30:00,27.4,10.2,30.51,NW,315,0.0,0.0,48,0.00,,,0.00,WUHU216HW,2013-11-25 02:30:00,
2013-11-24 21:35:00,27.4,10.2,30.51,NW,315,0.0,0.0,48,0.00,,,0.00,WUHU216HW,2013-11-25 02:35:00,
2013-11-24 22:00:00,26.6,10.0,30.51,NNE,23,0.0,0.0,49,0.00,,,0.00,WUHU216HW,2013-11-25 03:00:00,
2013-11-24 22:05:00,26.6,10.0,30.51,NNE,23,0.0,0.0,49,0.00,,,0.00,WUHU216HW,2013-11-25 03:05:00,
2013-11-24 22:30:00,27.0,10.8,30.52,WSW,248,0.0,0.0,50,0.00,,,0.00,WUHU216HW,2013-11-25 03:30:00,
2013-11-24 22:35:00,27.0,10.8,30.52,WSW,248,0.0,0.0,50,0.00,,,0.00,WUHU216HW,2013-11-25 03:35:00,
2013-11-24 23:00:00,27.0,10.8,30.53,West,270,0.0,0.0,50,0.00,,,0.00,WUHU216HW,2013-11-25 04:00:00,
2013-11-24 23:05:00,27.0,10.8,30.53,West,270,0.0,0.0,50,0.00,,,0.00,WUHU216HW,2013-11-25 04:05:00,
2013-11-24 23:30:00,27.0,11.3,30.53,West,270,0.0,0.0,51,0.00,,,0.00,WUHU216HW,2013-11-25 04:30:00,
2013-11-24 23:35:00,27.0,11.3,30.53,West,270,0.0,0.0,51,0.00,,,0.00,WUHU216HW,2013-11-25 04:35:00,